Weather in Maximovca

Ukraine / Ternopil District     49°36′00″N   25°54′08″E
temp.,
°C
wind,
m/s
gust,
m/s
humid.,
%
clouds,
%
prec.,
mm/h
press.,
hPa
HPBL,
m
13 april, tue
tue1300:00+10sse33596 0.0 101931
03:00+8sse225711 0.0 101821
06:00+7se22595 0.0 101812
09:00+11sse235153 0.0 1018205
12:00+15ssw2241100 0.0 1017878
15:00+17wnw2240100 0.0 10161609
18:00+14nw5661100 0.0 1014451
21:00+8nnw5782100 0.0 1016378
14 april, wed
wed1400:00+7nnw5684100 0.0 1016375
03:00+7n4585100 0.0 1015326
06:00+6n3488100 0.0 1014284
09:00+7nne3487100 0.0 1014381
12:00+8nnw2288100 0.3 1013332
15:00+7wnw5587100 0.3 1013456
18:00+6wnw4485100 0.0 1014468
21:00+3nw4594100 0.0 1015318
15 april, thu
thu1500:00+3nw4795100 0.0 1014305
03:00+2nw5796100 2.6 1014315
06:00+2nw5896100 0.3 1014348
09:00+2nw5897100 0.9 1014336
12:00+2nw5896100 2.4 1014343
15:00+2nw61095100 3.4 1014375
18:00+2nw61196100 2.0 1014405
21:00+2wnw61296100 4.6 1014379
16 april, fri
fri1600:00+2wnw71395100 0.9 1013402
03:00+1nw71296100 4.6 1012392
06:00+1wnw61297100 3.3 1012376
09:00+2nw61197100 3.4 1011345
12:00+3nw61296100 1.6 1012462
15:00+4nw61296100 3.8 1012451
18:00+4nw5997100 1.7 1013322
21:00+4wnw5998100 1.8 1015311
17 april, sat
sat1700:00+4nw5997100 0.3 1016472
03:00+3nw5898100 0.3 1017278
06:00+4nw3698100 0.1 1018282
09:00+5nne1287100 0.2 1019452
12:00+5ese3490100 0.4 1020820
15:00+8ene2368100 0.6 10211199
18:00+8e3470100 0.3 1021804
21:00+5e238771 0.3 1022122